Контролен ТХ Measurements

Back to Overview

Timestamp Temperature Humidity
4/14/2019 3:53:44 AM 19.4 C 55.0%
4/14/2019 3:52:00 AM 19.4 C 55.0%
4/14/2019 3:25:32 AM 19.6 C 55.0%
4/14/2019 3:18:28 AM 19.6 C 55.0%
4/14/2019 3:16:44 AM 19.5 C 55.0%
4/14/2019 3:04:22 AM 19.6 C 55.0%
4/14/2019 2:57:20 AM 19.6 C 55.0%
4/14/2019 2:55:36 AM 19.7 C 55.0%
4/14/2019 2:08:00 AM 20.2 C 54.0%
4/14/2019 2:06:16 AM 20.2 C 54.0%
4/14/2019 12:22:14 AM 22.1 C 52.0%
4/14/2019 12:15:12 AM 22.2 C 52.0%
4/14/2019 12:08:09 AM 22.4 C 52.0%
4/14/2019 12:06:25 AM 22.5 C 52.0%
4/13/2019 11:18:48 PM 23.3 C 50.0%
4/13/2019 11:17:04 PM 23.4 C 50.0%
4/13/2019 10:15:22 PM 23.0 C 53.0%
4/13/2019 10:13:38 PM 22.9 C 53.0%
4/13/2019 9:25:56 PM 22.3 C 54.0%
4/13/2019 9:18:53 PM 22.2 C 55.0%
4/13/2019 9:17:09 PM 22.1 C 55.0%
4/13/2019 8:50:41 PM 22.2 C 55.0%
4/13/2019 8:48:57 PM 22.1 C 55.0%
4/13/2019 8:36:36 PM 22.0 C 55.0%
4/13/2019 8:34:52 PM 22.6 C 55.0%
4/13/2019 7:56:48 PM 21.0 C 71.0%
4/13/2019 7:55:36 PM 20.7 C 71.0%
4/13/2019 7:37:52 PM 20.0 C 58.0%
4/13/2019 7:36:08 PM 19.7 C 58.0%
4/13/2019 6:48:28 PM 17.6 C 60.0%
4/13/2019 6:46:44 PM 17.5 C 60.0%
4/13/2019 5:45:03 PM 17.7 C 60.0%
4/13/2019 5:43:19 PM 17.7 C 60.0%
4/13/2019 5:09:48 PM 17.8 C 61.0%
4/13/2019 5:02:45 PM 17.8 C 61.0%
4/13/2019 5:01:01 PM 17.9 C 61.0%
4/13/2019 4:27:31 PM 17.9 C 61.0%
4/13/2019 4:20:27 PM 17.5 C 61.0%
4/13/2019 4:18:43 PM 17.4 C 61.0%
4/13/2019 3:38:09 PM 17.1 C 61.0%
4/13/2019 3:36:25 PM 17.3 C 61.0%
4/13/2019 2:34:44 PM 16.2 C 64.0%
4/13/2019 2:27:42 PM 15.8 C 65.0%
4/13/2019 2:20:40 PM 15.4 C 65.0%
4/13/2019 2:18:56 PM 14.9 C 65.0%
4/7/2019 4:24:13 PM 12.4 C 69.0%
4/7/2019 4:22:29 PM 12.6 C 69.0%
4/7/2019 3:56:03 PM 13.0 C 68.0%
4/7/2019 3:54:19 PM 13.1 C 68.0%
4/7/2019 3:41:56 PM 13.1 C 68.0%